Location: Lakeview Terrace
(41.4931°N, 81.7101°W)
Time: 13:08:09
(UTC+00:00)

Daily predictions for brighter satellites

Satellite Brightness Start Highest point End
(mag) Time Altitude Azimuth Time Altitude Azimuth Time Altitude Azimuth
Meteor 2-21 4.5 22:44:01 10° N 22:50:12 86° E 22:56:17 10° S
Cosmos 292 Rocket 3.9 22:46:51 10° SSW 22:51:38 81° WNW 22:56:29 10° NNE
H-2A R/B 3.8 22:48:37 10° S 22:52:55 49° W 22:57:19 10° NNW
Timation 2 Rocket 4.2 22:49:03 10° NNW 22:55:43 76° ENE 23:02:34 10° SSE
Radarsat Rocket 4.3 22:49:54 10° S 22:55:58 72° WSW 23:01:47 10° NNW
Meteor 2-10 Rocket 4.5 22:53:08 10° SE 22:57:26 26° E 23:01:38 10° NE
Okean-O 4.0 22:54:32 10° ESE 22:57:38 19° ENE 23:00:44 10° NNE
SMAP 3.2 22:56:57 10° S 23:01:36 82° WSW 23:06:18 10° NNW
Cosmos 1553 Rocket 4.4 22:56:12 10° SSE 23:02:08 43° E 23:08:00 10° NNE
Cosmos 1408 4.1 23:00:19 10° NNE 23:02:41 16° ENE 23:05:03 10° ESE
Cosmos 1689 Rocket 3.3 23:00:37 10° NE 23:02:58 22° E 23:05:17 10° SSE
FengYun 1-2 T 4.3 22:58:11 10° SSE 23:03:46 67° ENE 23:09:21 10° N
H-2A R/B 3.6 23:02:11 10° E 23:05:27 16° ENE 23:08:44 10° NNE
AQUARIUS 4.3 23:02:51 10° S 23:07:20 80° WSW 23:11:52 10° NNW
Cosmos 1953 Rocket 3.6 23:05:02 10° N 23:09:29 89° E 23:13:57 10° S
Cosmos 44 Rocket 4.3 23:08:37 10° SSE 23:12:30 26° ESE 23:16:15 11° ENE
Cosmos 2058 Rocket 3.0 23:09:35 10° S 23:14:02 74° E 23:18:33 10° NNE
Lacrosse 5 4.0 23:11:33 10° NNW 23:14:03 14° N 23:16:35 10° NNE
Cosmos 2219 3.2 23:12:30 10° NNW 23:18:17 76° ENE 23:24:02 10° SSE
Meteor 2-16 Rocket 4.5 23:12:16 10° N 23:18:23 89° W 23:24:29 10° S
Cosmos 1892 3.0 23:17:50 10° N 23:21:34 42° E 23:25:14 10° SSE
Cosmos 1939 Rocket 2.9 23:19:28 10° SSE 23:23:19 53° ENE 23:27:08 10° N
SL-08 R/B 4.5 23:18:12 10° N 23:24:17 60° E 23:30:17 10° SSE
Cosmos 1076 Rocket 4.5 23:21:06 10° NNE 23:24:38 25° ENE 23:28:09 10° SE
Cosmos 968 Rocket 3.5 23:20:01 10° N 23:25:08 55° ENE 23:30:12 10° SE
Cosmos 2082 4.2 23:19:56 10° N 23:25:16 38° ENE 23:30:34 10° SE
Cosmos 1656 3.7 23:19:58 10° SSW 23:25:32 85° WNW 23:31:13 10° NNE
CZ-4B R/B 2.4 23:24:25 10° N 23:27:28 45° WNW 23:30:27 10° SSW
SAR-Lupe-4 3.5 23:24:34 10° NNE 23:28:10 89° ESE 23:31:44 10° SSW
Cosmos 1300 4.3 23:25:26 10° SSW 23:28:59 37° WNW 23:32:35 10° N
Aureole 3 Rocket 3.3 23:25:46 10° S 23:29:42 82° W 23:35:16 10° N
Cosmos 1745 Rocket 4.2 23:25:01 10° N 23:31:08 49° ENE 23:37:14 10° SSE
NOSS 3-3 (A) 3.8 23:25:52 10° SSW 23:31:32 68° ESE 23:37:53 10° NE
NOSS 3-3 (C) 3.8 23:26:00 10° SSW 23:31:39 67° ESE 23:38:00 10° NE
USA 307 3.6 23:28:58 10° NW 23:32:58 36° NNE 23:35:04 22° E
Cosmos 1400 Rocket 3.5 23:29:15 10° SSW 23:33:18 60° W 23:37:20 10° N
Feng Yun 1-1 Rocket 4.4 23:30:18 10° SSE 23:36:13 88° WSW 23:42:11 10° NNW
Cosmos 1825 3.1 23:33:13 10° NNE 23:36:27 26° ENE 23:37:06 25° E
ERS-2 3.8 23:33:31 10° N 23:36:52 35° WNW 23:40:13 10° SW
COSMO-SKYMED 1 2.5 23:33:36 10° NNE 23:37:58 85° ESE 23:42:18 10° SSW
USA 308 3.5 23:33:56 10° NW 23:37:58 39° NNE 23:39:51 25° E
IRS-1C Rocket 4.0 23:32:57 10° SSE 23:38:12 79° ENE 23:43:30 10° NNW
Cosmos 2369 3.8 23:32:50 10° S 23:38:24 55° ESE 23:43:58 10° NNE
GPS 2-04 Rocket1 4.1 23:35:54 10° SW 23:39:20 27° SSE 23:41:13 19° SE
Helios 1A Rocket 2.9 23:37:55 10° SSE 23:41:57 58° ENE 23:46:00 10° N
OAO 2 Rocket 4.1 23:39:27 10° WSW 23:44:07 39° S 23:46:58 20° ESE
CSL-04 Rocket 4.3 23:40:25 10° SE 23:45:22 35° ENE 23:50:19 10° N
ATLAS 2AS CENTAUR R/B 3.9 23:39:43 10° NNW 23:45:53 26° NNE 23:48:38 21° ENE
CZ-4 R/B 4.3 23:42:00 10° SSE 23:46:08 77° ENE 23:50:19 10° N
CZ-2D R/B 3.1 23:42:32 10° SSE 23:46:19 72° ENE 23:50:07 10° N
Cosmos 1340 3.5 23:43:44 10° NNW 23:47:25 53° W 23:51:05 10° S
YAOGAN 1 2.7 23:43:51 10° SE 23:47:59 47° ENE 23:52:09 10° N
Cosmos 2227 Rocket 2.3 23:43:15 10° NNW 23:48:55 81° WSW 23:54:34 10° SSE
Cosmos 2263 Rocket 3.6 23:46:18 10° N 23:50:16 19° NE 23:50:16 19° NE
CZ-4 R/B 1.2 23:48:12 10° SSE 23:52:02 60° ENE 23:55:50 10° N
Cosmos 1812 Rocket 3.6 23:50:01 10° S 23:54:19 55° E 23:58:36 10° NNE
Okean O Rocket 4.4 23:52:59 10° SW 23:56:17 21° W 23:59:35 10° NW
